Regional Weather Roundup
Issued by NWS

Home | Current Version | Previous Version | Text Only | Print | Product List | Glossary Off
Versions: 1 2 3 4 5 6 7 8 9 10 11 12 13 14 15 16 17 18 19 20 21 22 23 24 25 26 27

000
ASUS45 KBOU 220506
RWRCO

WEATHER ROUNDUP FOR COLORADO
NATIONAL WEATHER SERVICE DENVER/BOULDER CO
1100 PM MDT MON APR 21 2014

NOTE: "FAIR" INDICATES FEW OR NO CLOUDS BELOW 12000 FEET WITH NO
SIGNIFICANT WEATHER AND/OR OBSTRUCTIONS TO VISIBILITY.

COZ001>005-013-030-031-220600-
...NORTHWEST COLORADO...

CITY           SKY/WX    TMP DP  RH WIND       PRES   REMARKS
CRAIG          CLOUDY    47  34  60 SE6       30.13F
HAYDEN         CLOUDY    48  28  46 E8        30.17F
MEEKER         CLOUDY    50  33  52 E8        30.15F
MOUNT WERNER   CLOUDY    45  16  31 S14       30.36F
STEAMBOAT SPGS CLOUDY    48  21  34 CALM      30.17F
WALDEN         PTCLDY    34  27  75 SE8       30.23F WCI  27
$$

COZ006>008-011-220600-
...WEST CENTRAL VALLEYS...

CITY           SKY/WX    TMP DP  RH WIND       PRES   REMARKS
GRAND JUNCTION PTCLDY    58  33  39 E10       30.06F
MONTROSE       MOCLDY    55  32  41 SE12      30.15F
EAGLE          PTCLDY    48  27  43 CALM      30.20F
RIFLE          MOCLDY    53  30  41 SE3       30.12S
DELTA          NOT AVBL
NUCLA          NOT AVBL
$$

COZ017>023-064>068-220600-
...SOUTHWEST COLORADO...

CITY           SKY/WX    TMP DP  RH WIND       PRES   REMARKS
DURANGO        PTCLDY    49  26  41 NE7       30.21R
CORTEZ         CLEAR     49  31  49 NE5       30.16R
PAGOSA SPRINGS PTCLDY    45  23  41 CALM      30.27S
TELLURIDE      NOT AVBL
WOLF CREEK PAS PTCLDY    34  19  55 SW17      30.46F WCI  23
$$

COZ009-010-012-014-032>034-037-058>063-220600-
...CENTRAL COLORADO...

CITY           SKY/WX    TMP DP  RH WIND       PRES   REMARKS
ASPEN          MOCLDY    44  27  51 SW9       30.24F
BUENA VISTA    MOCLDY    46  32  59 CALM      30.31R
COPPER MTN     MOCLDY    37  19  48 S12       30.44F
BERTHOUD PASS  FAIR      30  21  69 W13       30.45F WCI  20
COTTONWOOD PAS MOCLDY    41  30  65 CALM      30.37S
GUNNISON       MOCLDY    46  25  42 N3        30.30R
KREMMLING      PTCLDY    41  28  60 CALM      30.24S
LEADVILLE      MOCLDY    36  20  52 CALM      30.35S
MONARCH PASS   PTCLDY    36  19  51 W13       30.56S
SALIDA         MOCLDY    49  32  52 S6        30.36S
SUNLIGHT       MOCLDY    39  27  60 CALM      30.39F
WILKERSON PASS PTCLDY    34  28  80 S6        30.45S WCI  29
$$

COZ069>075-220600-
...SAN LUIS VALLEY/SANGRE DE CRISTO MOUNTAINS...

CITY           SKY/WX    TMP DP  RH WIND       PRES   REMARKS
ALAMOSA        PTCLDY    44  36  73 S7        30.26R
LA VETA PASS   PTCLDY    39  32  75 SW7       30.38S
SAGUACHE       PTCLDY    46  27  46 NW3       30.28S
$$

COZ035-036-038>040-220600-
...NORTHERN COLORADO FRONT RANGE...

CITY           SKY/WX    TMP DP  RH WIND       PRES   REMARKS
DENVER INTL AP PTCLDY    54  32  43 S15       30.14F
DMNS CITY PARK   N/A     58  32  36 S8G18     30.13F
AURORA         PTCLDY    55  32  41 S24       30.14F
FRONT RANGE AP NOT AVBL
ERIE MUNI ARPT PTCLDY    49  41  75 CALM      30.12F
BOULDER MUN AP PTCLDY    55  37  50 S5        30.12F
CENTENNIAL     PTCLDY    54  32  43 S14       30.17F
BROOMFIELD     NOT AVBL
FORT COLLINS   PTCLDY    52  37  58 NE3       30.14S
LONGMONT       NOT AVBL
$$

COZ041-046-047-076>085-087-088-220600-
...PIKES PEAK/PALMER DIVIDE AND SOUTHERN FOOTHILLS...

CITY           SKY/WX    TMP DP  RH WIND       PRES   REMARKS
COLO. SPRINGS  PTCLDY    51  31  46 S6        30.25F
A. F. ACADEMY  CLEAR     50  31  47 SE9       30.24F
ELLICOTT       NOT AVBL
FALCON         PTCLDY    46  29  50 S7        30.28S
FORT CARSON    CLEAR     51  31  46 SW6       30.22F
LIMON          PTCLDY    47  29  49 S10       30.21F
MONUMENT HILL  PTCLDY    46  30  53 S16       30.24F
TRINIDAD       CLOUDY    54  45  71 SW13      30.25F
$$

COZ042>045-048>051-090-091-220600-
...NORTHEAST COLORADO...

CITY           SKY/WX    TMP DP  RH WIND       PRES   REMARKS
GREELEY ARPT   PTCLDY    46  34  61 SE7       30.13S
AKRON          PTCLDY    51  32  48 S16       30.17F
BURLINGTON     MOCLDY    48  29  47 S13       30.20S
WRAY           CLEAR     52  31  44 E3        30.17S
STERLING       NOT AVBL
HOLYOKE        NOT AVBL
FORT MORGAN    NOT AVBL
$$

COZ086-089-092>099-220600-
...SOUTHEAST COLORADO...

CITY           SKY/WX    TMP DP  RH WIND       PRES   REMARKS
PUEBLO         PTCLDY    54  34  46 NE9       30.17F
LA JUNTA       PTCLDY    56  36  47 SE6       30.18S
LAMAR          PTCLDY    55  38  52 SE10      30.16F
SPRINGFIELD      N/A     50  42  74 SE8       30.20F
$$



USA.gov is the U.S. government's official web portal to all federal, state and local government web resources and services.